Location: *
(49.8044°N, 4.0558°E)
Time: 05:03:30
(UTC+00:00)

ATLAS CENTAUR R/B - Pass Details

Date: 09 April 2020
Orbit: 471 x 675 km, 64.7° (Epoch: 31 May)

Event Time Altitude Azimuth Distance (km) Brightness Sun altitude
Rises 20:15:12 0° 323° (NW) 2,708 6.3 -16.4°
Reaches altitude 10° 20:17:41 10° 334° (NNW) 1,776 4.8 -16.8°
Maximum altitude 20:21:10 29° 36° (NE) 954 2.5 -17.2°
Enters shadow 20:22:23 24° 70° (ENE) 1,075 2.5 -17.4°
